Bangkok, Thailand

8:50 AM ICT on January 20, 2017 (GMT +0700)
Bangkok International

Weather History for VTBD - November, 2012

Change the Weather History Date:

Monday, November 19, 2012

  Actual Average Record
Temperature  
Mean Temperature 83 °F -  
Max Temperature 88 °F 87 °F 95 °F (2006)
Min Temperature 78 °F 72 °F 68 °F (2001)
Cooling Degree Days 18    
Growing Degree Days 33 (Base 50)    
Moisture  
Dew Point 74 °F    
Average Humidity 74    
Maximum Humidity 89    
Minimum Humidity 49    
Precipitation  
Precipitation 0.00 in 0.03 in - ()
Sea Level Pressure  
Sea Level Pressure 29.84 in    
Wind  
Wind Speed 4 mph ()    
Max Wind Speed 12 mph    
Max Gust Speed -    
Visibility 6.2 miles    
Events      
Averages and records for this station are not official NWS values.
T = Trace of Precipitation, MM = Missing Value Source: Averaged Metar Reports

Daily Weather History Graph

Daily Weather History Graph

Search for Another Location

Airport or City:

Trip Planner

Search our weather history database for the weather conditions in past years. The results will help you decide how hot, cold, wet, or windy it might be!

Date:

Astronomy

Nov. 19, 2012 Rise Set
Actual Time 6:19 AM ICT 5:46 PM ICT
Civil Twilight 5:56 AM ICT 6:09 PM ICT
Nautical Twilight 5:30 AM ICT 6:35 PM ICT
Astronomical Twilight 5:05 AM ICT 7:00 PM ICT
Moon 11:18 AM ICT (11/19) 11:18 PM ICT (11/19)
Length of Visible Light 12h 12m
Length of Day
11h 27m
Waxing Crescent, 35% of the Moon is Illuminated
Nov 19
Waxing Crescent
Nov 20
First Quarter
Nov 28
Full
Dec 6
Last Quarter
Dec 13
New

Hourly Weather History & Observations

Time (ICT) Temp. Heat Index Dew Point Humidity Pressure Visibility Wind Dir Wind Speed Gust Speed Precip Events Conditions
12:00 AM 82.4 °F 89.5 °F 75.2 °F 79% 29.86 in 6.2 mi SSE 4.6 mph - N/A   Scattered Clouds
12:30 AM 80.6 °F 87.1 °F 77.0 °F 89% 29.86 in 6.2 mi SSE 3.5 mph - N/A   Scattered Clouds
1:00 AM 81 °F - 77 °F 83% 29.86 in 6 mi Calm Calm - -   Scattered Clouds
1:00 AM 80.6 °F 87.1 °F 77.0 °F 89% 29.86 in 6.2 mi Calm Calm - N/A   Scattered Clouds
1:30 AM 80.6 °F 87.1 °F 77.0 °F 89% 29.83 in 6.2 mi Calm Calm - N/A   Scattered Clouds
2:00 AM 80.6 °F 87.1 °F 77.0 °F 89% 29.83 in 6.2 mi Calm Calm - N/A   Scattered Clouds
2:30 AM 80.6 °F 86.2 °F 75.2 °F 84% 29.83 in 6.2 mi SSE 2.3 mph - N/A   Scattered Clouds
3:00 AM 80.6 °F 86.2 °F 75.2 °F 84% 29.83 in 6.2 mi SSE 3.5 mph - N/A   Scattered Clouds
3:30 AM 80.6 °F 85.4 °F 73.4 °F 79% 29.80 in 6.2 mi East 3.5 mph - N/A   Scattered Clouds
4:00 AM 78.8 °F - 73.4 °F 83% 29.80 in 6.2 mi East 2.3 mph - N/A   Scattered Clouds
4:30 AM 78.8 °F - 73.4 °F 83% 29.80 in 6.2 mi East 2.3 mph - N/A   Scattered Clouds
5:00 AM 78.8 °F - 73.4 °F 83% 29.80 in 6.2 mi East 3.5 mph - N/A   Scattered Clouds
5:30 AM 78.8 °F - 73.4 °F 83% 29.83 in 6.2 mi East 3.5 mph - N/A   Scattered Clouds
6:00 AM 78.8 °F - 73.4 °F 83% 29.83 in 6.2 mi Calm Calm - N/A   Scattered Clouds
6:30 AM 78.8 °F - 73.4 °F 83% 29.83 in 6.2 mi South 3.5 mph - N/A   Mostly Cloudy
7:00 AM 78 °F - 74 °F 84% 29.85 in 6 mi South 3.5 mph - -   Scattered Clouds
7:00 AM 78.8 °F - 73.4 °F 83% 29.83 in 6.2 mi South 3.5 mph - N/A   Mostly Cloudy
7:30 AM 78.8 °F - 75.2 °F 89% 29.86 in 6.2 mi ESE 3.5 mph - N/A   Mostly Cloudy
8:00 AM 80.6 °F 86.2 °F 75.2 °F 84% 29.86 in 6.2 mi East 3.5 mph - N/A   Mostly Cloudy
8:30 AM 84.2 °F 92.3 °F 75.2 °F 74% 29.89 in 6.2 mi SSE 2.3 mph - N/A   Mostly Cloudy
9:00 AM 84.2 °F 90.9 °F 73.4 °F 70% 29.89 in 6.2 mi SSE 3.5 mph - N/A   Mostly Cloudy
9:30 AM 84.2 °F 89.6 °F 71.6 °F 66% 29.89 in 6.2 mi SSE 9.2 mph - N/A   Mostly Cloudy
10:00 AM 86.0 °F 93.4 °F 73.4 °F 66% 29.89 in 6.2 mi ESE 9.2 mph - N/A   Mostly Cloudy
10:30 AM 86.0 °F 91.8 °F 71.6 °F 62% 29.89 in 6.2 mi East 6.9 mph - N/A   Mostly Cloudy
11:00 AM 86.0 °F 91.8 °F 71.6 °F 62% 29.89 in 6.2 mi ESE 6.9 mph - N/A   Mostly Cloudy
11:30 AM 87.8 °F 95.6 °F 73.4 °F 62% 29.89 in 6.2 mi ESE 8.1 mph - N/A   Mostly Cloudy
12:00 PM 87.8 °F 93.8 °F 71.6 °F 58% 29.86 in 6.2 mi East 5.8 mph - N/A   Mostly Cloudy
12:30 PM 87.8 °F 93.8 °F 71.6 °F 58% 29.86 in 6.2 mi ESE 4.6 mph - N/A   Mostly Cloudy
1:00 PM 88 °F - 71 °F 49% 29.84 in 6 mi SSE 10.4 mph - -   Scattered Clouds
1:00 PM 87.8 °F 93.8 °F 71.6 °F 58% 29.83 in 6.2 mi SSE 10.4 mph - N/A   Mostly Cloudy
1:30 PM 87.8 °F 93.8 °F 71.6 °F 58% 29.80 in 6.2 mi ESE 11.5 mph - N/A   Mostly Cloudy
2:00 PM 87.8 °F 93.8 °F 71.6 °F 58% 29.80 in 6.2 mi ESE 10.4 mph - N/A   Mostly Cloudy
2:30 PM 86.0 °F 91.8 °F 71.6 °F 62% 29.80 in 6.2 mi East 9.2 mph - N/A   Mostly Cloudy
3:00 PM 86.0 °F 91.8 °F 71.6 °F 62% 29.80 in 6.2 mi East 6.9 mph - N/A   Mostly Cloudy
3:30 PM 86.0 °F 91.8 °F 71.6 °F 62% 29.77 in 6.2 mi ENE 9.2 mph - N/A   Mostly Cloudy
4:00 PM 86.0 °F 91.8 °F 71.6 °F 62% 29.80 in 6.2 mi NE 5.8 mph - N/A   Mostly Cloudy
4:30 PM 84.2 °F 89.6 °F 71.6 °F 66% 29.80 in 6.2 mi ENE 6.9 mph - N/A   Mostly Cloudy
5:00 PM 84.2 °F 89.6 °F 71.6 °F 66% 29.80 in 6.2 mi ENE 8.1 mph - N/A   Mostly Cloudy
5:30 PM 82.4 °F 88.2 °F 73.4 °F 74% 29.80 in 6.2 mi East 6.9 mph - N/A   Mostly Cloudy
6:00 PM 82.4 °F 88.2 °F 73.4 °F 74% 29.83 in 6.2 mi East 6.9 mph - N/A   Mostly Cloudy
6:30 PM 82.4 °F 88.2 °F 73.4 °F 74% 29.83 in 6.2 mi East 5.8 mph - N/A   Mostly Cloudy
7:00 PM 82 °F - 73 °F 67% 29.85 in 6 mi ESE 3.5 mph - -   Scattered Clouds
7:00 PM 82.4 °F 88.2 °F 73.4 °F 74% 29.83 in 6.2 mi ESE 3.5 mph - N/A   Mostly Cloudy
7:30 PM 82.4 °F 88.2 °F 73.4 °F 74% 29.86 in 6.2 mi East 4.6 mph - N/A   Mostly Cloudy
8:00 PM 82.4 °F 89.5 °F 75.2 °F 79% 29.86 in 6.2 mi ENE 2.3 mph - N/A   Mostly Cloudy
8:30 PM 82.4 °F 89.5 °F 75.2 °F 79% 29.86 in 6.2 mi ENE 3.5 mph - N/A   Mostly Cloudy
9:00 PM 82.4 °F 89.5 °F 75.2 °F 79% 29.86 in 6.2 mi NNE 3.5 mph - N/A   Mostly Cloudy
9:30 PM 82.4 °F 89.5 °F 75.2 °F 79% 29.89 in 6.2 mi North 4.6 mph - N/A   Mostly Cloudy
10:00 PM 82.4 °F 88.2 °F 73.4 °F 74% 29.89 in 6.2 mi North 2.3 mph - N/A   Mostly Cloudy
10:30 PM 80.6 °F 85.4 °F 73.4 °F 79% 29.89 in 6.2 mi SSE 3.5 mph - N/A   Mostly Cloudy
11:00 PM 82.4 °F 89.5 °F 75.2 °F 79% 29.92 in 6.2 mi SSE 2.3 mph - N/A   Mostly Cloudy
11:30 PM 82.4 °F 88.2 °F 73.4 °F 74% 29.89 in 6.2 mi West 2.3 mph - N/A   Mostly Cloudy